Location: Bieg
(49.3499°N, 10.3835°E)
Time: 20:42:32
(UTC+00:00)

SAR-Lupe-4 - Pass Details

Date: 23 May 2024
Orbit: 476 x 482 km, 98.1° (Epoch: 02 April)

Event Time Altitude Azimuth Distance (km) Brightness Sun altitude
Rises 02:09:09 0° 15° (NNE) 2,554 8.5 -10.1°
Reaches altitude 10° 02:11:14 10° 17° (NNE) 1,669 7.5 -9.8°
Maximum altitude 02:14:49 77° 104° (ESE) 501 3.7 -9.5°
Drops below altitude 10° 02:18:22 10° 190° (S) 1,654 5.8 -9.1°
Enters shadow 02:18:38 - 191° (S) 1,765 5.9 -9.0°
